MSC3203 HEGN-LQSA

Flight info

Callsign MSC3203
Flight time 3h 26m
Altitude 40000
Route HGD V608 NABED T55 TANSA DCT DIMIS DCT GACMO
Aircraft E190/M-SDE3GILORVW/S

Departure

Time 2026-04-27 14:04
Airport Hurghada International Airport (HEGN)

Arrival

Time 2026-04-27 17:31
Airport Sarajevo International Airport (LQSA)
Time Latitude Longitude Altitude Speed Heading
2026-04-27 13:49 27.19055 33.80272 52 ft 3 kts 345°
2026-04-27 13:53 27.19056 33.80271 57 ft 1 kts 345°
2026-04-27 13:53 27.19074 33.80266 50 ft 4 kts 345°
2026-04-27 13:54 27.19106 33.80257 52 ft 6 kts 345°
2026-04-27 13:54 27.19151 33.80244 54 ft 8 kts 345°
2026-04-27 13:54 27.19205 33.80218 52 ft 9 kts 314°
2026-04-27 13:54 27.19212 33.80192 56 ft 0 kts 276°
2026-04-27 13:55 27.19212 33.80191 56 ft 2 kts 274°
2026-04-27 13:55 27.19204 33.80141 54 ft 9 kts 255°
2026-04-27 13:55 27.19185 33.80061 54 ft 12 kts 255°
2026-04-27 13:56 27.19161 33.79962 59 ft 13 kts 255°
2026-04-27 13:56 27.19098 33.79905 58 ft 14 kts 175°
2026-04-27 13:56 27.18996 33.79934 57 ft 17 kts 165°
2026-04-27 13:56 27.18869 33.79971 57 ft 21 kts 164°
2026-04-27 13:57 27.18719 33.80015 53 ft 24 kts 165°
2026-04-27 13:57 27.18541 33.80069 49 ft 29 kts 165°
2026-04-27 13:57 27.18342 33.80127 49 ft 30 kts 165°
2026-04-27 13:57 27.18135 33.80189 49 ft 32 kts 165°
2026-04-27 13:58 27.17921 33.80252 52 ft 33 kts 165°
2026-04-27 13:58 27.17694 33.80318 53 ft 33 kts 165°
2026-04-27 13:58 27.17504 33.80375 51 ft 26 kts 165°
2026-04-27 13:58 27.17416 33.80284 47 ft 21 kts 256°
2026-04-27 13:59 27.17379 33.80134 53 ft 20 kts 255°
2026-04-27 13:59 27.17343 33.79979 50 ft 21 kts 255°
2026-04-27 13:59 27.17308 33.79834 66 ft 17 kts 255°
2026-04-27 13:59 27.17284 33.79734 85 ft 10 kts 255°
2026-04-27 14:00 27.17269 33.79672 91 ft 8 kts 255°
2026-04-27 14:00 27.17249 33.79588 96 ft 12 kts 255°
2026-04-27 14:00 27.17207 33.79508 101 ft 14 kts 203°
2026-04-27 14:00 27.17090 33.79532 104 ft 19 kts 166°
2026-04-27 14:01 27.16941 33.79576 106 ft 26 kts 165°
2026-04-27 14:01 27.16758 33.79630 104 ft 29 kts 165°
2026-04-27 14:01 27.16562 33.79688 108 ft 29 kts 165°
2026-04-27 14:01 27.16360 33.79747 112 ft 30 kts 166°
2026-04-27 14:02 27.16158 33.79809 114 ft 31 kts 165°
2026-04-27 14:02 27.15971 33.79858 117 ft 20 kts 185°
2026-04-27 14:02 27.15927 33.79797 118 ft 1 kts 255°
2026-04-27 14:02 27.15917 33.79754 119 ft 10 kts 254°
2026-04-27 14:03 27.15945 33.79675 118 ft 14 kts 335°
2026-04-27 14:03 27.15975 33.79666 117 ft 0 kts 345°
2026-04-27 14:03 27.16010 33.79655 117 ft 19 kts 346°
2026-04-27 14:03 27.16392 33.79541 112 ft 93 kts 345°
2026-04-27 14:04 27.17217 33.79291 198 ft 146 kts 345°
2026-04-27 14:04 27.18265 33.78986 901 ft 160 kts 347°
2026-04-27 14:04 27.19350 33.78652 1872 ft 169 kts 344°
2026-04-27 14:04 27.20548 33.78300 2699 ft 185 kts 344°
2026-04-27 14:05 27.21825 33.77942 3562 ft 192 kts 334°
2026-04-27 14:05 27.22778 33.76940 4464 ft 193 kts 296°
2026-04-27 14:05 27.22962 33.75463 5365 ft 196 kts 272°
2026-04-27 14:05 27.22970 33.73917 6232 ft 200 kts 273°
2026-04-27 14:06 27.22996 33.72259 6686 ft 222 kts 273°
2026-04-27 14:06 27.23039 33.70471 7347 ft 242 kts 273°
2026-04-27 14:06 27.23097 33.68483 7971 ft 261 kts 273°
2026-04-27 14:06 27.23170 33.66425 9045 ft 265 kts 273°
2026-04-27 14:07 27.23260 33.64329 10125 ft 271 kts 273°
2026-04-27 14:07 27.23366 33.62123 10807 ft 291 kts 274°
2026-04-27 14:07 27.23489 33.59849 11786 ft 297 kts 274°
2026-04-27 14:07 27.23615 33.57518 12925 ft 299 kts 274°
2026-04-27 14:08 27.23742 33.55170 14054 ft 302 kts 274°
2026-04-27 14:08 27.23869 33.52792 15151 ft 305 kts 274°
2026-04-27 14:08 27.23997 33.50394 16237 ft 309 kts 274°
2026-04-27 14:08 27.24126 33.47960 17220 ft 315 kts 274°
2026-04-27 14:09 27.24257 33.45480 18148 ft 320 kts 274°
2026-04-27 14:09 27.24389 33.42961 18950 ft 325 kts 274°
2026-04-27 14:09 27.24524 33.40398 19757 ft 330 kts 274°
2026-04-27 14:09 27.24658 33.37816 20596 ft 333 kts 274°
2026-04-27 14:10 27.24794 33.35200 21424 ft 337 kts 274°
2026-04-27 14:10 27.24930 33.32554 22209 ft 341 kts 274°
2026-04-27 14:10 27.25068 33.29884 22886 ft 344 kts 274°
2026-04-27 14:10 27.25207 33.27187 23611 ft 348 kts 274°
2026-04-27 14:11 27.25344 33.24500 24271 ft 349 kts 274°
2026-04-27 14:11 27.25483 33.21771 24940 ft 350 kts 274°
2026-04-27 14:11 27.25623 33.19033 25602 ft 351 kts 274°
2026-04-27 14:11 27.25761 33.16287 26268 ft 351 kts 274°
2026-04-27 14:12 27.25899 33.13540 26902 ft 353 kts 274°
2026-04-27 14:12 27.26038 33.10773 27495 ft 355 kts 274°
2026-04-27 14:12 27.26177 33.07987 28078 ft 357 kts 274°
2026-04-27 14:12 27.26316 33.05192 28637 ft 359 kts 274°
2026-04-27 14:13 27.26455 33.02383 29164 ft 360 kts 274°
2026-04-27 14:13 27.26592 32.99600 29660 ft 362 kts 274°
2026-04-27 14:13 27.26732 32.96767 30115 ft 364 kts 274°
2026-04-27 14:13 27.26871 32.93922 30510 ft 366 kts 274°
2026-04-27 14:14 27.27010 32.91059 30903 ft 367 kts 274°
2026-04-27 14:14 27.27149 32.88191 31298 ft 368 kts 274°
2026-04-27 14:14 27.27288 32.85310 31688 ft 370 kts 274°
2026-04-27 14:14 27.27427 32.82415 32075 ft 371 kts 274°
2026-04-27 14:15 27.27566 32.79512 32545 ft 370 kts 274°
2026-04-27 14:15 27.27702 32.76641 33124 ft 366 kts 274°
2026-04-27 14:15 27.27836 32.73797 33669 ft 363 kts 273°
2026-04-27 14:15 27.27968 32.71006 34121 ft 361 kts 273°
2026-04-27 14:16 27.28100 32.68190 34500 ft 360 kts 273°
2026-04-27 14:16 27.28230 32.65394 34857 ft 358 kts 273°
2026-04-27 14:16 27.28360 32.62599 35219 ft 357 kts 273°
2026-04-27 14:16 27.28488 32.59820 35565 ft 355 kts 273°
2026-04-27 14:17 27.28616 32.57055 35933 ft 354 kts 273°
2026-04-27 14:17 27.28743 32.54291 36271 ft 352 kts 273°
2026-04-27 14:17 27.28869 32.51547 36606 ft 351 kts 273°
2026-04-27 14:17 27.28993 32.48820 37009 ft 348 kts 273°
2026-04-27 14:18 27.29116 32.46103 37276 ft 348 kts 273°
2026-04-27 14:18 27.29238 32.43387 37555 ft 348 kts 273°
2026-04-27 14:18 27.29360 32.40680 37843 ft 347 kts 273°
2026-04-27 14:18 27.29481 32.37977 38157 ft 345 kts 273°
2026-04-27 14:19 27.29600 32.35285 38465 ft 344 kts 273°
2026-04-27 14:19 27.29719 32.32606 38721 ft 343 kts 273°
2026-04-27 14:19 27.30007 32.29939 38843 ft 346 kts 283°
2026-04-27 14:19 27.30921 32.27416 39004 ft 352 kts 294°
2026-04-27 14:20 27.32310 32.25126 39187 ft 357 kts 299°
2026-04-27 14:20 27.33751 32.22855 39368 ft 356 kts 298°
2026-04-27 14:20 27.35194 32.20591 39527 ft 357 kts 300°
2026-04-27 14:20 27.36665 32.18380 39687 ft 358 kts 300°
2026-04-27 14:21 27.38187 32.16148 39853 ft 358 kts 301°
2026-04-27 14:21 27.39703 32.13957 40119 ft 356 kts 301°
2026-04-27 14:21 27.41232 32.11739 40091 ft 360 kts 301°
2026-04-27 14:22 27.44346 32.07190 39976 ft 372 kts 301°
2026-04-27 14:22 27.47546 32.02533 39965 ft 380 kts 301°
2026-04-27 14:23 27.50802 31.97797 39978 ft 382 kts 301°
2026-04-27 14:23 27.54039 31.93081 39975 ft 382 kts 301°
2026-04-27 14:24 27.57286 31.88341 39984 ft 382 kts 301°
2026-04-27 14:24 27.60534 31.83594 39994 ft 382 kts 301°
2026-04-27 14:25 27.63781 31.78843 39981 ft 382 kts 301°
2026-04-27 14:25 27.67031 31.74083 39990 ft 382 kts 301°
2026-04-27 14:26 27.70275 31.69327 40001 ft 382 kts 301°
2026-04-27 14:26 27.73518 31.64567 40004 ft 382 kts 301°
2026-04-27 14:27 27.76757 31.59808 40005 ft 382 kts 301°
2026-04-27 14:27 27.79975 31.55074 40003 ft 382 kts 301°
2026-04-27 14:28 27.83218 31.50297 40007 ft 382 kts 301°
2026-04-27 14:28 27.86451 31.45531 40001 ft 382 kts 301°
2026-04-27 14:29 27.89684 31.40759 40006 ft 382 kts 301°
2026-04-27 14:29 27.92911 31.35990 40004 ft 382 kts 301°
2026-04-27 14:30 27.96117 31.31248 40003 ft 381 kts 302°
2026-04-27 14:30 27.99337 31.26477 40005 ft 381 kts 301°
2026-04-27 14:31 28.02552 31.21710 40001 ft 381 kts 301°
2026-04-27 14:31 28.05773 31.16930 40008 ft 381 kts 302°
2026-04-27 14:32 28.08915 31.12087 40015 ft 379 kts 298°
2026-04-27 14:32 28.11302 31.07922 39990 ft 379 kts 298°
2026-04-27 14:33 28.14201 31.02935 39994 ft 379 kts 298°
2026-04-27 14:33 28.17123 30.97963 39993 ft 379 kts 298°
2026-04-27 14:34 28.20047 30.92989 39994 ft 379 kts 298°
2026-04-27 14:34 28.22978 30.87999 39993 ft 380 kts 299°
2026-04-27 14:35 28.25884 30.83044 39993 ft 380 kts 299°
2026-04-27 14:35 28.28808 30.78053 39977 ft 380 kts 299°
2026-04-27 14:36 28.31734 30.73051 39988 ft 380 kts 299°
2026-04-27 14:36 28.34656 30.68053 39977 ft 380 kts 299°
2026-04-27 14:37 28.37578 30.63047 39979 ft 380 kts 299°
2026-04-27 14:37 28.40501 30.58036 39982 ft 381 kts 299°
2026-04-27 14:38 28.43425 30.53015 39979 ft 381 kts 299°
2026-04-27 14:38 28.46346 30.47995 39982 ft 381 kts 299°
2026-04-27 14:39 28.49248 30.42999 39985 ft 381 kts 299°
2026-04-27 14:39 28.52164 30.37974 39978 ft 381 kts 299°
2026-04-27 14:40 28.55082 30.32940 39979 ft 381 kts 299°
2026-04-27 14:40 28.57995 30.27909 39981 ft 381 kts 299°
2026-04-27 14:41 28.60912 30.22865 39978 ft 381 kts 299°
2026-04-27 14:41 28.63832 30.17809 39977 ft 381 kts 299°
2026-04-27 14:42 28.66745 30.12760 39977 ft 382 kts 299°
2026-04-27 14:42 28.69659 30.07702 39977 ft 382 kts 299°
2026-04-27 14:43 28.72572 30.02641 39980 ft 382 kts 299°
2026-04-27 14:43 28.75483 29.97576 39981 ft 382 kts 299°
2026-04-27 14:44 28.78377 29.92536 39978 ft 382 kts 299°
2026-04-27 14:44 28.81287 29.87461 39980 ft 382 kts 299°
2026-04-27 14:45 28.84195 29.82385 39973 ft 382 kts 299°
2026-04-27 14:45 28.87105 29.77297 39978 ft 382 kts 299°
2026-04-27 14:46 28.90007 29.72218 39976 ft 382 kts 299°
2026-04-27 14:46 28.92890 29.67167 39977 ft 382 kts 299°
2026-04-27 14:47 28.95791 29.62075 39979 ft 382 kts 299°
2026-04-27 14:47 28.98687 29.56988 39978 ft 382 kts 299°
2026-04-27 14:48 29.01605 29.51858 39984 ft 382 kts 299°
2026-04-27 14:48 29.05936 29.44228 39983 ft 382 kts 299°
2026-04-27 14:49 29.08827 29.39127 39983 ft 382 kts 299°
2026-04-27 14:49 29.11862 29.34127 39990 ft 388 kts 310°
2026-04-27 14:50 29.14042 29.32228 40015 ft 402 kts 323°
2026-04-27 14:50 29.16554 29.30761 40019 ft 406 kts 325°
2026-04-27 14:50 29.21596 29.27857 39984 ft 405 kts 326°
2026-04-27 14:51 29.26681 29.25034 39981 ft 406 kts 326°
2026-04-27 14:51 29.30918 29.22705 39981 ft 407 kts 326°
2026-04-27 14:52 29.36878 29.19429 39975 ft 406 kts 326°
2026-04-27 14:52 29.41980 29.16619 39979 ft 407 kts 326°
2026-04-27 14:53 29.47082 29.13806 39981 ft 407 kts 326°
2026-04-27 14:53 29.52159 29.11004 39986 ft 407 kts 326°
2026-04-27 14:54 29.57279 29.08176 39985 ft 407 kts 326°
2026-04-27 14:54 29.62392 29.05348 39983 ft 408 kts 327°
2026-04-27 14:55 29.67505 29.02516 39987 ft 408 kts 327°
2026-04-27 14:55 29.72614 28.99684 39982 ft 408 kts 327°
2026-04-27 14:56 29.77728 28.96845 39993 ft 408 kts 327°
2026-04-27 14:56 29.82815 28.94019 39989 ft 408 kts 327°
2026-04-27 14:57 29.87927 28.91175 39997 ft 408 kts 327°
2026-04-27 14:57 29.93048 28.88323 39996 ft 409 kts 327°
2026-04-27 14:58 29.98169 28.85467 40001 ft 409 kts 327°
2026-04-27 14:58 30.03285 28.82612 39993 ft 409 kts 327°
2026-04-27 14:59 30.08402 28.79752 39999 ft 409 kts 327°
2026-04-27 14:59 30.13524 28.76885 39998 ft 409 kts 327°
2026-04-27 15:00 30.18644 28.74018 40001 ft 409 kts 327°
2026-04-27 15:00 30.23762 28.71148 40007 ft 409 kts 327°
2026-04-27 15:01 30.28880 28.68274 40010 ft 408 kts 327°
2026-04-27 15:01 30.33993 28.65400 40016 ft 409 kts 327°
2026-04-27 15:02 30.39113 28.62517 40013 ft 410 kts 327°
2026-04-27 15:02 30.44217 28.59642 40020 ft 410 kts 327°
2026-04-27 15:03 30.49357 28.56742 40019 ft 411 kts 327°
2026-04-27 15:03 30.54501 28.53837 40020 ft 411 kts 327°
2026-04-27 15:04 30.59640 28.50931 40023 ft 411 kts 327°
2026-04-27 15:04 30.64777 28.48023 40027 ft 411 kts 327°
2026-04-27 15:05 30.69886 28.45127 40031 ft 411 kts 327°
2026-04-27 15:05 30.75033 28.42206 40027 ft 411 kts 328°
2026-04-27 15:06 30.80181 28.39281 40022 ft 411 kts 328°
2026-04-27 15:06 30.85324 28.36355 40019 ft 412 kts 328°
2026-04-27 15:07 30.90470 28.33425 40021 ft 412 kts 328°
2026-04-27 15:07 30.95623 28.30487 40026 ft 412 kts 328°
2026-04-27 15:08 31.00773 28.27546 40029 ft 412 kts 328°
2026-04-27 15:08 31.05901 28.24614 40031 ft 413 kts 328°
2026-04-27 15:09 31.11062 28.21661 40033 ft 412 kts 328°
2026-04-27 15:09 31.16225 28.18703 40036 ft 413 kts 328°
2026-04-27 15:10 31.21379 28.15746 40044 ft 413 kts 328°
2026-04-27 15:10 31.26510 28.12799 40044 ft 413 kts 328°
2026-04-27 15:11 31.31666 28.09833 40043 ft 413 kts 328°
2026-04-27 15:11 31.36825 28.06863 40043 ft 413 kts 328°
2026-04-27 15:12 31.41980 28.03890 40036 ft 413 kts 328°
2026-04-27 15:12 31.47138 28.00913 40045 ft 413 kts 328°
2026-04-27 15:13 31.52431 27.98202 40041 ft 417 kts 332°
2026-04-27 15:13 31.57827 27.95710 40042 ft 417 kts 333°
2026-04-27 15:14 31.63197 27.93239 40043 ft 417 kts 333°
2026-04-27 15:14 31.68601 27.90750 40044 ft 417 kts 333°
2026-04-27 15:15 31.74000 27.88260 40043 ft 417 kts 333°
2026-04-27 15:15 31.79397 27.85768 40044 ft 417 kts 333°
2026-04-27 15:16 31.84798 27.83271 40043 ft 417 kts 333°
2026-04-27 15:16 31.89286 27.81194 40043 ft 417 kts 333°
2026-04-27 15:17 31.94700 27.78699 40044 ft 417 kts 333°
2026-04-27 15:17 32.00110 27.76209 40044 ft 417 kts 333°
2026-04-27 15:18 32.05518 27.73716 40043 ft 417 kts 333°
2026-04-27 15:18 32.10881 27.71238 40044 ft 417 kts 333°
2026-04-27 15:19 32.16288 27.68738 40042 ft 417 kts 333°
2026-04-27 15:19 32.21689 27.66238 40046 ft 417 kts 333°
2026-04-27 15:20 32.27094 27.63732 40045 ft 417 kts 333°
2026-04-27 15:20 32.32497 27.61224 40044 ft 417 kts 333°
2026-04-27 15:21 32.37899 27.58716 40044 ft 417 kts 333°
2026-04-27 15:21 32.43302 27.56204 40044 ft 417 kts 333°
2026-04-27 15:22 32.48670 27.53704 40044 ft 417 kts 333°
2026-04-27 15:22 32.54067 27.51189 40045 ft 417 kts 333°
2026-04-27 15:23 32.59469 27.48668 40045 ft 417 kts 333°
2026-04-27 15:23 32.64864 27.46146 40043 ft 417 kts 333°
2026-04-27 15:24 32.70262 27.43620 40042 ft 417 kts 333°
2026-04-27 15:24 32.75654 27.41088 40045 ft 417 kts 333°
2026-04-27 15:25 32.81052 27.38544 40029 ft 416 kts 333°
2026-04-27 15:25 32.86444 27.36001 40042 ft 417 kts 333°
2026-04-27 15:26 32.91802 27.33470 40042 ft 416 kts 333°
2026-04-27 15:26 32.97188 27.30924 40046 ft 416 kts 333°
2026-04-27 15:27 33.02576 27.28373 40043 ft 416 kts 333°
2026-04-27 15:27 33.07962 27.25820 40050 ft 416 kts 333°
2026-04-27 15:28 33.13354 27.23260 40050 ft 416 kts 333°
2026-04-27 15:28 33.18741 27.20700 40040 ft 417 kts 333°
2026-04-27 15:29 33.24133 27.18134 40043 ft 417 kts 333°
2026-04-27 15:29 33.29503 27.15575 40046 ft 417 kts 333°
2026-04-27 15:30 33.34893 27.13002 40045 ft 417 kts 333°
2026-04-27 15:30 33.40289 27.10424 40042 ft 417 kts 333°
2026-04-27 15:31 33.45682 27.07843 40039 ft 417 kts 333°
2026-04-27 15:31 33.51041 27.05276 40043 ft 418 kts 333°
2026-04-27 15:32 33.56448 27.02682 40041 ft 418 kts 333°
2026-04-27 15:32 33.61857 27.00083 40037 ft 418 kts 333°
2026-04-27 15:33 33.67260 26.97484 40040 ft 418 kts 333°
2026-04-27 15:33 33.72633 26.94896 40036 ft 419 kts 333°
2026-04-27 15:34 33.78079 26.92269 40034 ft 419 kts 333°
2026-04-27 15:34 33.83465 26.89667 40035 ft 419 kts 333°
2026-04-27 15:35 33.88874 26.87051 40034 ft 419 kts 333°
2026-04-27 15:35 33.94286 26.84430 40037 ft 419 kts 333°
2026-04-27 15:36 33.99660 26.81726 40042 ft 415 kts 326°
2026-04-27 15:36 34.04295 26.77668 40041 ft 412 kts 319°
2026-04-27 15:37 34.08832 26.73463 40032 ft 411 kts 319°
2026-04-27 15:37 34.13343 26.69274 40037 ft 411 kts 319°
2026-04-27 15:38 34.17875 26.65060 40036 ft 411 kts 319°
2026-04-27 15:38 34.22413 26.60835 40031 ft 412 kts 319°
2026-04-27 15:39 34.26954 26.56601 40033 ft 412 kts 319°
2026-04-27 15:39 34.31489 26.52367 40031 ft 412 kts 319°
2026-04-27 15:40 34.36030 26.48121 40029 ft 412 kts 319°
2026-04-27 15:40 34.40574 26.43867 40025 ft 412 kts 319°
2026-04-27 15:41 34.45085 26.39637 40033 ft 412 kts 319°
2026-04-27 15:41 34.49618 26.35381 40032 ft 412 kts 319°
2026-04-27 15:42 34.54154 26.31115 40034 ft 412 kts 319°
2026-04-27 15:42 34.58695 26.26839 40032 ft 412 kts 319°
2026-04-27 15:43 34.63232 26.22562 40028 ft 412 kts 319°
2026-04-27 15:43 34.67735 26.18310 40031 ft 412 kts 319°
2026-04-27 15:44 34.72265 26.14026 40031 ft 412 kts 319°
2026-04-27 15:44 34.76796 26.09735 40030 ft 412 kts 319°
2026-04-27 15:45 34.81324 26.05441 40032 ft 412 kts 319°
2026-04-27 15:45 34.85852 26.01141 40034 ft 412 kts 319°
2026-04-27 15:46 34.90349 25.96865 40034 ft 412 kts 319°
2026-04-27 15:46 34.94863 25.92565 40037 ft 412 kts 319°
2026-04-27 15:47 34.99385 25.88253 40035 ft 412 kts 319°
2026-04-27 15:47 35.03906 25.83934 40043 ft 412 kts 319°
2026-04-27 15:48 35.08423 25.79614 40034 ft 412 kts 319°
2026-04-27 15:49 35.15192 25.73127 40048 ft 412 kts 319°
2026-04-27 15:49 35.19676 25.68822 40052 ft 412 kts 319°
2026-04-27 15:50 35.24187 25.64485 40064 ft 412 kts 319°
2026-04-27 15:50 35.28592 25.60245 40062 ft 412 kts 319°
2026-04-27 15:51 35.33096 25.55903 40058 ft 412 kts 319°
2026-04-27 15:51 35.37597 25.51556 40064 ft 412 kts 319°
2026-04-27 15:52 35.42067 25.47234 40066 ft 412 kts 319°
2026-04-27 15:52 35.46571 25.42873 40068 ft 412 kts 318°
2026-04-27 15:53 35.51066 25.38514 40068 ft 412 kts 318°
2026-04-27 15:53 35.55569 25.34140 40070 ft 412 kts 318°
2026-04-27 15:54 35.60061 25.29771 40063 ft 412 kts 318°
2026-04-27 15:54 35.64520 25.25427 40063 ft 412 kts 318°
2026-04-27 15:55 35.69020 25.21038 40057 ft 412 kts 318°
2026-04-27 15:55 35.73519 25.16643 40060 ft 412 kts 318°
2026-04-27 15:56 35.78013 25.12246 40059 ft 413 kts 318°
2026-04-27 15:56 35.82506 25.07845 40058 ft 413 kts 318°
2026-04-27 15:57 35.87003 25.03432 40061 ft 413 kts 318°
2026-04-27 15:57 35.91489 24.99022 40054 ft 413 kts 318°
2026-04-27 15:58 35.95960 24.94622 40055 ft 413 kts 318°
2026-04-27 15:58 36.00456 24.90188 40057 ft 413 kts 318°
2026-04-27 15:59 36.04954 24.85748 40056 ft 414 kts 318°
2026-04-27 15:59 36.09453 24.81301 40059 ft 414 kts 318°
2026-04-27 16:00 36.13951 24.76849 40057 ft 414 kts 318°
2026-04-27 16:00 36.18422 24.72417 40061 ft 414 kts 318°
2026-04-27 16:01 36.22926 24.67945 40062 ft 414 kts 318°
2026-04-27 16:01 36.27427 24.63467 40061 ft 414 kts 318°
2026-04-27 16:02 36.31897 24.59017 40064 ft 414 kts 318°
2026-04-27 16:02 36.36399 24.54527 40061 ft 415 kts 318°
2026-04-27 16:03 36.40149 24.50786 40064 ft 416 kts 318°
2026-04-27 16:03 36.44659 24.46282 40063 ft 416 kts 318°
2026-04-27 16:04 36.49169 24.41764 40063 ft 416 kts 318°
2026-04-27 16:04 36.53681 24.37240 40064 ft 416 kts 318°
2026-04-27 16:05 36.58190 24.32713 40070 ft 416 kts 318°
2026-04-27 16:05 36.62703 24.28190 40068 ft 417 kts 318°
2026-04-27 16:06 36.67227 24.23639 40070 ft 417 kts 318°
2026-04-27 16:06 36.71750 24.19076 40072 ft 418 kts 318°
2026-04-27 16:07 36.76248 24.14532 40069 ft 418 kts 318°
2026-04-27 16:07 36.80766 24.09954 40080 ft 419 kts 318°
2026-04-27 16:08 36.85289 24.05368 40082 ft 419 kts 318°
2026-04-27 16:08 36.89817 24.00777 40073 ft 419 kts 318°
2026-04-27 16:09 36.94345 23.96178 40074 ft 419 kts 318°
2026-04-27 16:09 37.01134 23.89260 40077 ft 420 kts 318°
2026-04-27 16:10 37.10183 23.80019 40084 ft 420 kts 318°
2026-04-27 16:11 37.16962 23.73068 40083 ft 420 kts 318°
2026-04-27 16:12 37.23757 23.66088 40093 ft 420 kts 318°
2026-04-27 16:13 37.30541 23.59081 40088 ft 421 kts 318°
2026-04-27 16:13 37.37334 23.52039 40099 ft 421 kts 318°
2026-04-27 16:14 37.46365 23.42686 40094 ft 422 kts 318°
2026-04-27 16:15 37.55449 23.33260 40089 ft 422 kts 318°
2026-04-27 16:16 37.64484 23.23828 40099 ft 422 kts 318°
2026-04-27 16:17 37.73552 23.14362 40096 ft 423 kts 318°
2026-04-27 16:18 37.82619 23.04856 40105 ft 423 kts 318°
2026-04-27 16:19 37.87116 23.00137 40101 ft 422 kts 318°
2026-04-27 16:20 37.96159 22.90589 40102 ft 423 kts 318°
2026-04-27 16:21 38.02946 22.83428 40106 ft 423 kts 318°
2026-04-27 16:22 38.11986 22.73840 40109 ft 423 kts 318°
2026-04-27 16:22 38.18765 22.66637 40107 ft 423 kts 318°
2026-04-27 16:23 38.25548 22.59420 40109 ft 423 kts 318°
2026-04-27 16:24 38.30065 22.54590 40110 ft 424 kts 318°
2026-04-27 16:25 38.39056 22.44959 40113 ft 424 kts 318°
2026-04-27 16:26 38.48087 22.35255 40116 ft 423 kts 318°
2026-04-27 16:27 38.57109 22.25522 40114 ft 424 kts 318°
2026-04-27 16:28 38.68345 22.13364 40131 ft 424 kts 317°
2026-04-27 16:29 38.79630 22.01122 40121 ft 424 kts 317°
2026-04-27 16:30 38.88597 21.91329 40124 ft 424 kts 317°
2026-04-27 16:31 38.99839 21.79030 40114 ft 425 kts 317°
2026-04-27 16:32 39.06589 21.71609 40109 ft 425 kts 317°
2026-04-27 16:33 39.13330 21.64189 40107 ft 424 kts 317°
2026-04-27 16:33 39.17817 21.59235 40113 ft 423 kts 317°
2026-04-27 16:34 39.22270 21.54312 40108 ft 424 kts 317°
2026-04-27 16:34 39.26768 21.49384 40110 ft 425 kts 317°
2026-04-27 16:35 39.31240 21.44411 40116 ft 424 kts 316°
2026-04-27 16:36 39.37930 21.36914 40110 ft 425 kts 317°
2026-04-27 16:36 39.42439 21.31897 40108 ft 424 kts 317°
2026-04-27 16:37 39.46883 21.26945 40108 ft 424 kts 317°
2026-04-27 16:37 39.51358 21.21938 40107 ft 425 kts 317°
2026-04-27 16:38 39.55823 21.16923 40110 ft 424 kts 317°
2026-04-27 16:38 39.60279 21.11900 40097 ft 425 kts 317°
2026-04-27 16:39 39.64721 21.06913 40097 ft 425 kts 317°
2026-04-27 16:39 39.69190 21.01876 40079 ft 426 kts 317°
2026-04-27 16:40 39.73670 20.96833 40079 ft 426 kts 317°
2026-04-27 16:40 39.78142 20.91774 40076 ft 426 kts 317°
2026-04-27 16:41 39.82621 20.86698 40079 ft 426 kts 317°
2026-04-27 16:41 39.87075 20.81643 40085 ft 426 kts 317°
2026-04-27 16:42 39.91538 20.76559 40089 ft 426 kts 317°
2026-04-27 16:42 39.96011 20.71472 40095 ft 426 kts 317°
2026-04-27 16:43 39.99728 20.67239 40092 ft 426 kts 317°
2026-04-27 16:43 40.04199 20.62141 40084 ft 427 kts 317°
2026-04-27 16:44 40.08967 20.57534 40114 ft 429 kts 328°
2026-04-27 16:44 40.14306 20.53957 40090 ft 431 kts 332°
2026-04-27 16:45 40.19721 20.50563 40089 ft 431 kts 332°
2026-04-27 16:45 40.25138 20.47171 40081 ft 432 kts 332°
2026-04-27 16:46 40.30525 20.43790 40082 ft 432 kts 332°
2026-04-27 16:46 40.35940 20.40383 40082 ft 431 kts 332°
2026-04-27 16:47 40.41364 20.36964 40084 ft 432 kts 332°
2026-04-27 16:47 40.46788 20.33537 40085 ft 431 kts 332°
2026-04-27 16:48 40.52197 20.30119 40072 ft 432 kts 332°
2026-04-27 16:48 40.57619 20.26684 40060 ft 431 kts 332°
2026-04-27 16:49 40.65679 20.21566 40065 ft 431 kts 332°
2026-04-27 16:49 40.71084 20.18123 40080 ft 431 kts 332°
2026-04-27 16:50 40.76392 20.14738 40070 ft 432 kts 332°
2026-04-27 16:50 40.81817 20.11273 40062 ft 432 kts 332°
2026-04-27 16:51 40.87226 20.07811 40063 ft 432 kts 332°
2026-04-27 16:51 40.92632 20.04343 40049 ft 432 kts 332°
2026-04-27 16:52 40.98011 20.00889 40093 ft 432 kts 332°
2026-04-27 16:52 41.03426 19.97405 40095 ft 432 kts 332°
2026-04-27 16:53 41.08516 19.94125 39735 ft 425 kts 332°
2026-04-27 16:53 41.11199 19.92388 39526 ft 429 kts 332°
2026-04-27 16:53 41.13840 19.90682 39526 ft 414 kts 332°
2026-04-27 16:54 41.16384 19.89040 39302 ft 405 kts 332°
2026-04-27 16:54 41.18942 19.87380 39127 ft 416 kts 332°
2026-04-27 16:54 41.21548 19.85689 38875 ft 427 kts 332°
2026-04-27 16:54 41.24232 19.83949 38741 ft 428 kts 332°
2026-04-27 16:55 41.26933 19.82197 38359 ft 432 kts 332°
2026-04-27 16:55 41.29642 19.80438 38044 ft 432 kts 332°
2026-04-27 16:55 41.35037 19.76930 38068 ft 433 kts 332°
2026-04-27 16:56 41.40469 19.73392 38064 ft 433 kts 332°
2026-04-27 16:56 41.45848 19.69881 38051 ft 432 kts 332°
2026-04-27 16:57 41.51253 19.66346 38044 ft 432 kts 331°
2026-04-27 16:57 41.55982 19.63249 38047 ft 431 kts 331°
2026-04-27 16:58 41.61376 19.59709 38046 ft 432 kts 331°
2026-04-27 16:58 41.66763 19.56166 38044 ft 431 kts 331°
2026-04-27 16:59 41.72062 19.52680 37983 ft 407 kts 331°
2026-04-27 16:59 41.74550 19.51043 37776 ft 391 kts 331°
2026-04-27 16:59 41.76957 19.49456 37379 ft 380 kts 331°
2026-04-27 17:00 41.80956 19.46804 36923 ft 398 kts 331°
2026-04-27 17:00 41.84367 19.44541 36593 ft 417 kts 331°
2026-04-27 17:00 41.86980 19.42811 36323 ft 429 kts 332°
2026-04-27 17:01 41.89676 19.41031 36080 ft 433 kts 332°
2026-04-27 17:01 41.92393 19.39235 35787 ft 435 kts 332°
2026-04-27 17:01 41.95121 19.37423 35431 ft 437 kts 332°
2026-04-27 17:01 41.97850 19.35610 35030 ft 438 kts 332°
2026-04-27 17:02 42.00584 19.33794 34628 ft 438 kts 332°
2026-04-27 17:02 42.03320 19.31973 34253 ft 439 kts 332°
2026-04-27 17:02 42.06063 19.30146 33844 ft 440 kts 332°
2026-04-27 17:02 42.08812 19.28315 33405 ft 442 kts 332°
2026-04-27 17:03 42.11563 19.26479 32981 ft 443 kts 332°
2026-04-27 17:03 42.14331 19.24625 32554 ft 444 kts 332°
2026-04-27 17:03 42.17066 19.22791 32143 ft 445 kts 332°
2026-04-27 17:03 42.19832 19.20936 32246 ft 442 kts 332°
2026-04-27 17:04 42.22507 19.19148 33679 ft 416 kts 332°
2026-04-27 17:04 42.27816 19.15583 33390 ft 436 kts 332°
2026-04-27 17:04 42.30543 19.13750 33143 ft 439 kts 332°
2026-04-27 17:05 42.33290 19.11901 33064 ft 443 kts 332°
2026-04-27 17:05 42.36034 19.10051 32444 ft 447 kts 332°
2026-04-27 17:05 42.38809 19.08174 32186 ft 443 kts 332°
2026-04-27 17:06 42.43918 19.04688 32309 ft 447 kts 332°
2026-04-27 17:06 42.49397 19.00816 32270 ft 444 kts 331°
2026-04-27 17:06 42.52141 18.98839 31993 ft 448 kts 331°
2026-04-27 17:07 42.54878 18.96861 32185 ft 444 kts 331°
2026-04-27 17:07 42.60500 18.93228 32106 ft 449 kts 335°
2026-04-27 17:08 42.66132 18.89626 32067 ft 448 kts 333°
2026-04-27 17:08 42.71713 18.85842 32072 ft 448 kts 332°
2026-04-27 17:09 42.77250 18.82049 32069 ft 447 kts 332°
2026-04-27 17:09 42.82812 18.78240 32081 ft 448 kts 333°
2026-04-27 17:09 42.85563 18.76352 31894 ft 431 kts 332°
2026-04-27 17:10 42.88182 18.74552 31617 ft 411 kts 332°
2026-04-27 17:10 42.90682 18.72831 31363 ft 395 kts 332°
2026-04-27 17:10 42.93107 18.71160 31117 ft 389 kts 332°
2026-04-27 17:10 42.95539 18.69480 30881 ft 394 kts 332°
2026-04-27 17:11 43.02935 18.66133 30205 ft 399 kts 349°
2026-04-27 17:11 43.05689 18.65531 29934 ft 400 kts 350°
2026-04-27 17:12 43.11162 18.64348 29372 ft 400 kts 350°
2026-04-27 17:12 43.13910 18.63742 29096 ft 400 kts 350°
2026-04-27 17:12 43.16667 18.63133 28810 ft 401 kts 350°
2026-04-27 17:13 43.19417 18.62528 28731 ft 397 kts 350°
2026-04-27 17:13 43.22178 18.61912 28366 ft 404 kts 350°
2026-04-27 17:13 43.24956 18.61294 27749 ft 404 kts 350°
2026-04-27 17:13 43.27742 18.60677 27138 ft 399 kts 351°
2026-04-27 17:14 43.30438 18.60079 26561 ft 394 kts 351°
2026-04-27 17:14 43.33127 18.59480 26027 ft 389 kts 351°
2026-04-27 17:14 43.35794 18.58883 25460 ft 387 kts 351°
2026-04-27 17:14 43.38443 18.58287 24946 ft 384 kts 351°
2026-04-27 17:15 43.41080 18.57692 24398 ft 382 kts 351°
2026-04-27 17:15 43.43696 18.57099 23858 ft 380 kts 351°
2026-04-27 17:15 43.46295 18.56507 23307 ft 375 kts 351°
2026-04-27 17:15 43.48854 18.55924 22820 ft 372 kts 351°
2026-04-27 17:16 43.51359 18.55348 22302 ft 370 kts 351°
2026-04-27 17:16 43.52294 18.55132 22094 ft 368 kts 351°
2026-04-27 17:16 43.54568 18.54607 21649 ft 366 kts 350°
2026-04-27 17:16 43.57076 18.54027 21142 ft 364 kts 350°
2026-04-27 17:17 43.59561 18.53451 20631 ft 361 kts 350°
2026-04-27 17:17 43.62025 18.52879 20127 ft 357 kts 350°
2026-04-27 17:17 43.64474 18.52307 19629 ft 354 kts 350°
2026-04-27 17:18 43.69296 18.51174 18097 ft 347 kts 350°
2026-04-27 17:18 43.71651 18.50621 16843 ft 338 kts 349°
2026-04-27 17:18 43.73941 18.50078 16500 ft 336 kts 349°
2026-04-27 17:18 43.76257 18.49526 15987 ft 337 kts 349°
2026-04-27 17:19 43.78559 18.48975 15501 ft 334 kts 349°
2026-04-27 17:19 43.80846 18.48426 14985 ft 332 kts 349°
2026-04-27 17:19 43.83105 18.47886 14494 ft 325 kts 349°
2026-04-27 17:19 43.85299 18.47338 14063 ft 314 kts 346°
2026-04-27 17:20 43.87276 18.46255 13758 ft 300 kts 328°
2026-04-27 17:20 43.88811 18.44430 13012 ft 300 kts 307°
2026-04-27 17:20 43.89662 18.41743 11951 ft 310 kts 289°
2026-04-27 17:20 43.90459 18.38925 10963 ft 317 kts 294°
2026-04-27 17:21 43.91302 18.36204 10820 ft 296 kts 294°
2026-04-27 17:21 43.92088 18.33646 10699 ft 282 kts 294°
2026-04-27 17:21 43.92869 18.31179 10584 ft 279 kts 295°
2026-04-27 17:21 43.93664 18.28712 10495 ft 281 kts 295°
2026-04-27 17:22 43.94465 18.26229 10311 ft 283 kts 295°
2026-04-27 17:22 43.95263 18.23745 10050 ft 280 kts 294°
2026-04-27 17:22 43.95879 18.21173 9762 ft 281 kts 286°
2026-04-27 17:22 43.96376 18.18525 9460 ft 279 kts 286°
2026-04-27 17:23 43.96861 18.15964 9136 ft 275 kts 286°
2026-04-27 17:23 43.97336 18.13435 8807 ft 267 kts 285°
2026-04-27 17:23 43.97794 18.10977 8477 ft 257 kts 286°
2026-04-27 17:23 43.98226 18.08663 8165 ft 238 kts 286°
2026-04-27 17:24 43.98629 18.06481 7868 ft 232 kts 286°
2026-04-27 17:24 43.99050 18.04286 7583 ft 236 kts 287°
2026-04-27 17:24 43.99388 18.02064 7269 ft 237 kts 272°
2026-04-27 17:24 43.98974 17.99870 6935 ft 235 kts 239°
2026-04-27 17:25 43.97798 17.98415 6604 ft 225 kts 203°
2026-04-27 17:25 43.96311 17.98106 6244 ft 215 kts 161°
2026-04-27 17:25 43.95254 17.99408 5954 ft 196 kts 117°
2026-04-27 17:25 43.94558 18.01033 6192 ft 211 kts 121°
2026-04-27 17:26 43.93720 18.02807 6286 ft 226 kts 120°
2026-04-27 17:26 43.92954 18.04759 6238 ft 236 kts 114°
2026-04-27 17:26 43.92248 18.06833 5821 ft 243 kts 114°
2026-04-27 17:26 43.91462 18.08912 5442 ft 243 kts 116°
2026-04-27 17:27 43.90679 18.10972 5101 ft 239 kts 115°
2026-04-27 17:27 43.89949 18.12997 4797 ft 229 kts 115°
2026-04-27 17:27 43.89235 18.14927 4440 ft 220 kts 115°
2026-04-27 17:27 43.88539 18.16762 4130 ft 209 kts 115°
2026-04-27 17:28 43.87909 18.18486 3850 ft 198 kts 115°
2026-04-27 17:28 43.87284 18.20183 3569 ft 195 kts 115°
2026-04-27 17:28 43.86065 18.23451 3052 ft 183 kts 116°
2026-04-27 17:29 43.85509 18.24950 2782 ft 167 kts 116°
2026-04-27 17:29 43.85002 18.26312 2541 ft 154 kts 115°
2026-04-27 17:29 43.84564 18.27492 2377 ft 147 kts 114°
2026-04-27 17:29 43.84093 18.28761 2169 ft 145 kts 113°
2026-04-27 17:30 43.83630 18.30018 1960 ft 149 kts 113°
2026-04-27 17:30 43.82720 18.32454 1685 ft 131 kts 116°
2026-04-27 17:30 43.82392 18.33331 1700 ft 68 kts 117°
2026-04-27 17:31 43.82278 18.33672 1707 ft 9 kts 62°
2026-04-27 17:31 43.82352 18.33667 1705 ft 13 kts 345°
2026-04-27 17:31 43.82425 18.33639 1705 ft 7 kts 345°
2026-04-27 17:31 43.82474 18.33658 1704 ft 7 kts 27°
2026-04-27 17:32 43.82507 18.33682 1705 ft 0 kts 27°
2026-04-27 17:32 43.82520 18.33691 1704 ft 0 kts 27°